RH
16 16 17 18 20 23 26 30 34 39 47 54 59 65 73 79 84 86 88 91 91 93 95 94 95 96 95 97 96 96 98 98 99 100 99 98 97 94 93 92 91 92 90 83 80 78 77 76 76 75 75 74 72 70 68 63 54 45 40 36 34 32 32
15 15 14 14 15 17 22 28 33 33 35 41 47 48 52 63 73 77 76 80 85 89 93 94 93 94 94 95 95 94 95 95 95 97 99 100 99 99 98 98 96 93 90 85 80 78 76 74 74 73 72 72 71 69 68 66 61 54 49 45 40 37 34
17 16 14 14 14 15 20 28 36 43 48 61 69 63 56 57 61 63 61 63 70 75 84 91 93 94 93 92 95 96 96 95 93 92 94 95 96 98 99 99 100 98 95 92 89 86 84 81 80 79 76 74 72 69 67 64 61 57 54 51 48 43 39
18 17 15 16 14 15 22 28 36 50 62 80 92 88 83 81 76 73 67 61 60 59 63 73 82 91 94 91 92 96 97 98 97 94 91 90 90 92 94 95 98 100 99 99 97 95 93 91 89 87 85 83 80 77 74 71 67 63 59 56 54 51 47
20 20 18 19 17 17 28 36 45 62 77 91 97 91 92 97 96 94 86 74 66 58 51 52 56 68 86 93 94 96 98 99 100 98 96 93 90 88 87 88 91 93 96 99 100 99 99 97 94 93 90 88 89 87 83 81 79 75 72 69 67 67 64
23 23 21 22 20 19 30 42 55 75 93 100 98 90 92 99 100 99 93 81 73 63 53 46 40 44 63 81 90 95 99 100 99 100 99 98 97 92 87 83 84 85 87 95 100 99 99 99 97 97 93 87 90 92 88 85 82 79 79 79 78 78 77
26 27 25 25 23 20 27 39 54 79 97 101 100 95 95 99 100 97 91 84 76 65 54 45 39 41 51 66 81 92 98 100 100 99 100 100 99 97 93 87 84 82 81 89 99 99 99 100 97 97 96 91 92 93 89 88 88 85 84 82 81 81 78
30 29 27 27 26 23 25 30 48 79 98 100 100 99 97 100 100 95 91 87 79 69 55 42 38 47 56 65 78 89 96 100 101 100 100 99 100 100 98 95 93 89 86 90 98 99 99 100 97 95 96 95 95 95 94 96 98 97 94 91 88 87 82
32 31 29 28 27 26 25 24 39 75 99 100 99 100 99 100 98 94 92 87 81 73 60 44 40 51 62 66 69 74 80 88 96 100 101 100 100 100 98 98 98 96 95 97 99 99 99 100 100 98 99 99 98 99 100 99 99 99 98 94 91 88 86
33 33 32 31 29 28 28 23 32 70 100 101 99 101 100 99 98 95 90 83 80 78 68 55 47 50 59 62 60 63 66 71 80 90 97 99 100 101 99 98 99 99 99 100 99 100 100 100 100 96 96 98 95 95 96 93 92 96 97 95 91 89 90
38 37 34 34 32 29 30 25 32 72 103 100 98 102 99 99 98 92 84 81 86 86 78 69 59 52 53 54 55 62 64 64 69 76 85 92 96 99 99 99 101 100 99 100 100 100 100 100 99 94 91 91 85 82 84 82 82 89 95 98 98 96 96
46 45 41 40 36 33 35 27 31 71 102 100 99 102 99 99 94 84 81 84 92 93 83 77 72 63 58 56 54 58 60 60 64 69 76 83 87 92 94 95 99 99 98 99 99 100 100 99 99 96 92 89 86 86 86 84 84 88 93 97 98 98 97
54 54 53 51 46 45 48 36 35 74 103 100 100 102 98 97 88 80 88 96 97 94 84 79 76 68 65 62 56 56 57 53 56 67 77 83 85 87 89 91 92 91 90 89 88 95 100 97 97 100 96 93 95 98 97 95 94 95 96 97 98 98 97
60 61 64 65 58 56 61 48 45 81 107 99 99 103 98 94 87 83 93 98 94 89 83 78 75 73 74 71 63 60 55 51 66 86 93 90 87 87 86 87 86 84 84 83 84 91 94 91 93 98 97 98 100 100 99 100 100 99 100 100 99 98 96
66 67 70 75 69 63 66 58 50 77 105 101 98 103 97 91 90 87 89 89 83 80 77 72 73 79 85 82 74 65 55 63 88 101 94 87 85 84 83 83 83 86 92 94 94 98 98 93 91 89 90 98 101 99 100 101 99 98 97 97 97 96 93
70 74 75 79 77 69 71 69 54 64 94 104 100 101 98 92 89 85 82 80 78 77 74 70 73 84 90 87 78 65 61 82 103 99 89 89 89 85 84 86 86 90 98 102 100 99 100 99 96 94 96 100 101 101 98 92 88 88 88 91 96 95 90
75 81 82 82 82 76 75 77 65 60 83 103 102 100 101 96 90 84 78 75 79 85 80 73 80 92 92 84 76 71 77 95 103 98 97 99 96 90 90 94 94 89 91 98 98 95 97 98 97 97 97 95 95 92 85 79 77 75 75 84 94 95 91
77 80 84 84 84 81 77 79 74 67 80 100 102 99 102 101 93 85 78 75 82 90 87 79 84 91 88 81 82 89 96 101 101 101 101 99 96 92 89 94 99 91 84 87 88 86 90 92 92 93 92 89 87 82 76 73 71 64 64 75 86 88 88
77 76 81 83 83 82 79 78 74 71 82 100 104 99 102 104 94 86 87 89 88 90 91 89 86 85 80 76 81 93 102 103 101 102 101 98 93 87 85 94 102 96 86 82 78 76 79 82 85 88 90 89 86 82 78 74 70 64 61 68 81 88 89
80 77 78 80 80 80 78 77 74 71 76 90 101 101 101 102 96 91 97 101 95 90 95 95 90 86 81 75 78 90 100 102 101 102 103 97 86 85 93 101 99 90 81 74 68 65 66 70 76 80 83 85 85 83 80 75 71 67 59 60 77 92 96
81 80 78 78 79 79 78 77 75 71 67 70 87 102 103 98 98 100 101 101 96 93 94 93 88 85 79 76 84 96 99 99 101 104 100 90 86 94 101 97 88 79 70 61 55 52 53 56 61 66 70 74 76 77 77 73 70 67 60 57 66 82 94
80 82 80 78 78 79 78 77 75 72 68 62 69 91 103 99 98 100 100 99 98 93 89 86 83 79 75 79 92 102 100 99 103 101 91 87 94 99 88 74 69 64 56 51 50 48 48 47 47 51 56 60 64 67 68 67 65 64 63 58 57 74 96
80 83 82 80 80 78 77 78 75 72 71 64 59 76 98 102 100 100 99 99 97 91 86 84 80 79 82 90 98 100 97 98 101 97 91 90 90 81 64 55 55 52 51 54 55 54 53 49 47 50 50 49 54 57 60 64 67 66 65 61 60 74 94
84 86 85 83 82 77 73 76 76 72 72 68 60 66 80 87 89 91 91 90 89 86 85 86 87 90 96 99 98 98 97 98 99 96 91 86 77 65 56 52 50 51 58 65 64 64 65 62 60 63 59 56 63 72 78 83 84 81 78 76 76 82 89
88 89 88 86 82 76 72 73 74 71 70 69 66 65 65 65 70 79 83 86 88 85 83 90 96 98 97 97 98 99 100 100 97 91 84 77 69 62 55 53 56 64 73 78 77 79 82 77 74 77 80 83 90 95 97 98 95 88 84 83 82 81 81
89 90 89 86 81 80 79 77 74 71 69 69 69 66 62 62 72 82 84 86 86 79 77 88 99 96 91 95 100 101 99 97 91 83 76 70 64 58 53 59 74 85 90 92 92 94 95 91 87 90 95 98 101 101 100 97 90 83 79 77 75 74 72
94 95 94 92 91 92 92 89 83 77 71 69 69 67 68 76 87 89 86 87 89 86 86 95 102 98 93 94 96 94 91 86 79 72 69 64 59 55 59 74 92 99 100 102 101 100 101 99 97 99 100 99 101 103 98 89 81 78 75 71 69 72 71
102 102 99 99 101 102 102 99 92 85 81 81 83 84 88 94 96 90 88 94 98 97 97 99 98 93 87 82 79 77 74 70 66 64 63 60 57 62 76 92 101 100 98 99 100 101 102 103 103 103 100 99 101 99 89 80 75 73 69 66 68 73 73
103 102 100 101 102 103 105 104 97 92 93 96 98 98 98 98 94 89 91 99 101 96 93 91 85 79 75 69 67 66 64 62 63 64 65 67 71 82 95 99 96 94 91 91 93 95 97 100 102 99 95 96 96 89 80 76 72 68 65 62 65 69 67
100 101 101 101 101 101 103 104 100 98 100 100 100 100 98 96 92 88 90 99 101 94 86 81 76 72 69 67 68 69 68 70 74 78 81 83 87 96 102 97 91 89 87 84 84 85 86 91 95 94 91 92 91 85 79 75 70 68 68 65 67 74 73
99 100 100 100 101 100 98 98 99 100 100 100 100 100 98 97 96 94 94 99 100 91 81 76 73 70 67 68 72 76 79 84 90 93 95 95 94 98 100 96 90 87 84 81 80 78 78 80 83 86 88 90 90 87 83 79 75 73 72 71 79 93 95
101 101 100 100 101 101 98 97 99 100 100 100 100 100 100 100 100 99 99 100 97 89 81 75 72 69 68 73 81 85 88 95 100 102 102 102 101 100 98 94 90 87 84 82 80 76 75 74 74 78 83 86 89 89 85 83 82 79 78 82 89 98 100
97 96 95 94 94 98 101 100 99 100 100 100 100 100 100 100 100 100 101 99 93 86 79 74 72 70 71 82 93 96 96 98 100 102 104 103 102 102 97 93 91 88 84 82 80 77 75 72 70 73 78 81 85 87 88 88 85 80 84 93 98 99 99
85 81 81 81 82 88 96 100 100 100 99 100 100 100 100 101 101 100 98 93 87 81 77 74 74 74 79 90 99 102 101 100 99 100 102 100 98 98 95 91 91 89 85 84 82 79 77 74 70 71 75 80 84 88 92 92 85 82 91 100 103 104 101
79 76 78 81 81 83 89 96 98 95 94 97 99 99 101 102 99 93 89 84 80 78 77 77 78 82 89 97 102 102 101 101 100 98 98 97 95 94 92 91 90 88 86 85 84 81 79 77 74 72 75 81 87 94 98 95 88 88 97 103 105 105 102
81 79 81 82 82 82 85 88 87 85 88 96 101 101 102 102 95 87 83 81 78 78 81 82 83 86 90 94 97 97 96 96 96 95 94 94 93 92 91 89 87 86 86 86 85 84 81 78 77 77 78 84 92 96 97 96 95 97 101 103 105 106 103
Wind_Speed
25 24 24 23 23 24 24 24 24 23 22 23 23 23 22 21 22 23 23 23 22 22 22 23 23 22 21 20 19 18 17 14 12 10 8 7 6 4 4 4 4 3 4 8 9 9 10 11 12 13 14 14 16 17 18 17 16 14 14 14 15 15 16
24 23 23 23 23 23 23 24 24 23 22 22 23 23 22 21 21 21 21 21 22 22 21 21 22 21 20 20 20 19 18 17 15 14 12 11 9 7 6 5 4 3 3 6 8 7 7 9 9 10 11 12 15 17 19 19 18 17 16 16 15 15 14
24 23 22 22 22 22 22 22 23 23 23 23 23 23 22 21 21 21 21 21 21 21 20 20 20 20 19 19 19 20 20 19 17 16 15 14 13 10 9 8 6 4 3 5 7 7 8 9 9 10 11 12 13 15 16 18 19 18 18 18 18 18 17
23 22 22 22 21 21 21 20 21 23 23 23 22 21 21 21 21 20 20 21 21 20 20 19 19 19 18 17 18 19 20 20 19 18 16 15 15 13 11 11 9 7 6 4 5 7 8 10 11 12 12 13 15 16 17 18 19 19 20 20 19 20 20
23 22 22 22 21 20 20 20 20 22 23 22 20 20 19 19 19 19 19 20 20 20 20 19 18 17 16 16 17 18 19 20 19 18 17 17 16 15 14 13 11 10 10 8 6 7 7 8 9 10 11 11 12 14 16 17 18 19 20 20 20 19 18
23 22 21 20 19 19 18 18 19 21 24 22 19 20 19 16 15 16 19 20 20 20 20 19 18 16 15 15 15 16 17 17 17 17 17 17 17 16 15 15 14 13 12 10 9 8 8 8 8 10 10 10 10 12 14 15 17 17 17 18 19 18 17
21 21 20 19 18 18 16 16 17 20 23 21 19 20 18 15 14 15 18 20 20 20 20 19 17 15 14 14 14 14 15 15 15 14 14 16 16 15 16 16 15 15 15 13 10 9 9 10 9 10 10 10 10 11 12 14 16 17 16 16 16 18 18
21 19 19 18 18 16 15 14 15 19 23 21 18 18 16 13 13 16 19 19 20 20 20 19 17 15 14 13 13 13 12 12 13 13 13 15 15 14 15 16 16 16 16 14 11 10 10 11 10 11 12 11 11 12 12 13 13 14 16 16 16 17 17
20 19 19 18 17 16 15 14 15 19 22 19 17 17 13 12 14 16 18 19 21 20 19 18 16 14 13 12 10 10 10 9 10 11 13 14 15 15 14 15 16 16 15 14 13 11 12 11 10 12 15 14 13 14 14 14 14 14 16 17 19 18 16
19 19 19 18 17 16 15 14 14 17 20 18 16 15 12 12 14 16 18 20 19 19 18 17 16 14 12 11 10 10 9 9 8 8 9 11 12 14 14 15 16 15 14 14 13 12 11 10 10 13 15 16 16 16 18 19 19 18 18 18 20 18 13
19 19 18 18 17 16 16 14 13 16 19 17 15 13 11 12 14 16 19 19 16 16 17 17 17 15 14 13 12 12 11 10 9 8 8 9 9 10 11 12 14 13 12 12 11 10 9 8 10 13 15 16 17 18 20 21 21 20 17 14 13 12 12
19 19 17 17 16 15 15 12 11 15 18 17 15 12 9 12 14 16 17 15 14 15 17 17 18 17 16 15 15 14 14 12 10 9 9 9 9 8 8 8 9 10 11 11 10 9 9 8 10 13 15 15 17 18 20 21 20 18 15 12 10 10 13
18 17 16 16 15 14 14 11 10 14 17 16 14 12 10 12 14 14 13 11 12 14 15 17 18 17 18 17 16 16 15 13 12 11 11 10 9 9 8 8 8 8 9 11 11 12 11 11 11 13 14 14 15 16 17 17 16 15 15 14 13 13 16
17 16 15 14 14 13 13 11 11 14 16 15 13 12 12 13 12 10 9 10 12 13 14 15 16 17 17 17 16 16 15 14 14 14 14 13 12 11 10 10 10 10 10 11 12 13 14 13 12 13 13 12 10 9 9 10 10 12 14 17 18 20 22
15 14 13 13 13 12 12 11 11 12 15 15 12 12 13 13 10 8 9 10 12 13 14 15 15 15 15 15 15 15 14 14 15 16 17 16 15 14 13 13 12 11 11 11 12 13 14 14 13 14 13 10 8 8 8 8 10 12 15 18 21 21 21
14 13 12 12 12 12 12 12 9 9 14 15 12 13 15 14 12 11 10 11 13 13 14 14 14 14 13 14 15 15 14 14 15 17 17 15 15 14 13 12 11 10 10 11 11 11 11 11 11 11 10 8 9 11 12 14 17 17 17 18 19 18 18
13 12 11 11 11 11 11 11 9 7 11 15 14 15 17 16 15 14 12 12 12 12 13 13 12 12 13 14 15 15 14 15 16 16 15 14 14 13 11 10 11 11 10 10 10 10 10 12 12 12 12 12 12 14 16 18 20 18 17 17 15 14 16
12 11 11 10 11 11 10 11 10 7 9 14 15 15 17 18 17 16 14 13 12 11 12 12 10 10 12 13 14 14 14 15 16 15 14 14 14 13 11 12 16 17 15 14 13 12 11 12 13 14 16 17 17 17 17 17 17 15 14 15 14 14 17
11 10 10 9 10 11 11 11 11 10 11 14 15 15 17 19 18 16 15 14 13 12 11 10 9 10 11 12 13 13 15 16 15 14 14 14 14 15 15 16 20 22 20 20 20 18 16 15 14 14 15 16 16 16 15 15 16 15 14 15 16 16 15
10 10 9 9 9 10 11 12 13 12 13 14 15 16 17 19 18 16 15 15 14 14 12 11 12 12 12 13 13 13 14 15 14 14 14 15 15 17 17 18 22 22 21 23 24 23 23 22 20 18 18 17 16 16 15 16 17 17 16 16 16 16 14
11 11 10 10 10 10 12 13 14 14 14 15 16 16 17 18 17 15 15 15 15 14 14 14 14 14 14 14 13 13 13 14 13 14 16 16 15 15 17 19 22 23 23 24 26 26 26 26 25 24 23 22 21 19 19 19 19 19 19 18 19 18 17
13 13 12 12 12 12 13 14 15 16 16 16 16 16 16 16 15 14 14 15 15 15 15 15 14 13 13 12 13 13 14 14 13 14 16 16 14 15 18 20 22 23 24 25 25 25 26 27 27 27 27 26 25 24 23 22 22 22 22 21 22 22 21
14 14 15 14 14 14 15 16 16 17 17 18 18 16 14 14 14 13 14 15 16 16 15 15 14 13 12 12 13 14 14 14 12 13 15 15 15 18 21 22 23 23 23 23 22 22 24 25 24 25 26 26 25 25 23 22 21 21 21 22 23 23 22
13 14 15 16 17 17 17 18 18 18 19 19 18 16 14 14 14 13 13 14 15 15 16 16 16 15 14 14 14 14 13 12 11 12 14 15 17 20 22 23 23 23 21 21 21 21 22 22 22 22 23 23 22 20 18 17 17 17 17 19 21 21 22
14 15 16 18 20 21 20 20 21 21 21 20 19 17 15 14 13 13 13 15 16 15 15 16 16 15 14 13 12 11 11 11 12 13 15 16 19 21 22 22 21 20 20 20 21 21 21 22 21 20 20 19 17 15 14 13 14 15 15 16 18 20 21
15 16 17 18 20 21 21 21 22 23 23 22 20 19 17 15 15 15 15 16 17 17 16 15 14 13 12 10 9 8 10 11 13 15 16 18 20 21 22 20 18 17 18 19 20 20 21 21 20 18 16 15 14 13 13 12 14 15 16 16 18 20 22
14 16 17 19 19 19 19 20 21 22 24 23 21 21 19 18 18 18 18 18 19 18 16 13 11 11 11 11 11 12 13 15 16 18 19 20 21 21 19 16 14 13 14 14 15 16 17 16 16 15 13 12 12 12 12 12 13 15 16 17 18 20 23
15 15 16 17 18 18 18 18 18 19 20 20 21 21 21 20 19 19 19 18 16 14 11 10 11 12 13 14 15 16 17 18 19 20 20 20 19 18 14 12 10 10 10 11 13 13 14 13 12 11 11 10 10 11 11 12 13 14 16 17 16 17 21
15 15 16 17 17 17 17 17 17 17 17 18 18 19 19 19 18 18 17 15 13 12 12 13 14 15 16 16 17 18 19 20 20 20 18 17 15 13 10 9 10 10 11 12 14 14 14 14 13 11 11 10 10 10 11 11 13 15 16 17 17 17 20
14 14 15 15 15 15 15 16 17 17 17 17 17 16 17 17 16 16 15 13 12 14 16 17 17 17 17 17 18 18 18 19 18 17 16 15 12 10 9 10 11 12 13 14 15 15 15 16 15 14 14 13 13 12 12 12 13 15 16 17 18 18 20
13 13 13 13 14 15 15 16 16 16 16 16 15 15 15 15 15 15 14 12 12 15 17 18 18 18 18 17 17 16 16 15 14 14 14 13 11 10 10 11 12 13 14 15 16 17 17 17 17 17 17 16 15 15 15 14 14 15 16 17 17 17 19
12 12 12 13 14 15 16 16 15 14 14 14 15 15 15 15 15 15 13 12 14 16 18 17 17 17 17 16 15 15 13 12 11 11 11 11 11 10 10 11 12 13 15 15 16 17 18 18 18 19 18 18 17 17 17 16 16 16 17 17 17 17 18
11 12 13 14 14 14 14 15 14 14 14 14 14 15 15 15 14 12 11 13 16 16 16 16 16 16 16 15 14 13 13 11 11 11 10 10 11 11 12 12 13 14 15 16 16 17 18 18 19 19 19 19 19 18 18 18 18 18 18 18 17 17 17
15 15 15 15 14 13 13 13 14 14 14 14 14 13 13 14 14 13 14 15 15 14 15 16 16 16 15 14 13 13 13 12 12 12 12 12 13 14 14 15 16 16 17 17 18 18 19 20 20 20 19 19 20 19 20 20 19 19 19 19 18 17 17
20 18 16 14 14 13 13 13 13 14 13 13 13 12 12 14 15 15 16 16 15 15 15 15 15 15 15 14 14 14 13 13 13 13 13 14 15 16 17 18 18 19 19 18 18 19 20 21 21 20 19 19 19 19 20 20 20 20 20 19 17 16 16
22 19 17 15 14 13 12 13 13 13 13 12 12 11 12 14 16 16 18 18 17 16 15 14 14 15 14 14 15 15 15 15 15 15 15 16 17 18 19 20 20 20 20 20 19 20 21 21 21 21 19 18 19 19 19 20 20 20 19 17 15 15 15
Wind_Direction
59 59 59 58 57 56 55 53 52 51 52 53 51 49 49 48 49 48 46 44 45 47 47 44 43 42 42 42 41 41 42 42 47 49 44 37 18 351 335 312 267 241 263 279 284 286 288 289 286 285 284 281 279 281 286 292 297 300 300 298 296 292 289
58 57 57 57 56 55 54 53 50 48 49 50 47 45 45 45 45 42 39 39 38 38 41 42 41 39 39 40 39 37 35 34 36 38 38 38 33 26 22 10 333 290 270 282 291 290 285 285 285 286 286 286 284 283 284 286 286 287 289 292 294 293 293
55 55 55 55 54 54 54 52 50 47 46 46 42 39 40 41 41 38 36 36 34 31 33 35 35 33 33 37 38 36 33 30 28 27 27 27 27 24 20 18 11 347 307 282 289 294 291 289 289 290 289 288 286 284 284 284 283 282 282 286 290 290 291
52 51 51 52 51 52 51 50 49 46 44 44 38 33 34 35 35 35 35 34 31 28 28 28 28 27 26 30 34 34 33 30 25 21 20 18 16 15 9 8 12 6 350 321 296 298 300 298 296 295 293 291 290 286 284 284 285 284 284 285 288 290 290
46 46 47 48 48 50 49 47 48 46 43 40 32 30 31 30 31 32 29 27 26 25 25 24 23 21 21 23 27 29 29 29 25 19 17 14 9 8 4 0 1 359 359 357 338 320 319 316 311 307 304 302 301 297 292 288 286 286 287 288 289 291 292
41 41 43 44 45 48 49 47 47 46 43 36 26 24 27 29 33 29 20 17 18 19 20 20 20 20 21 22 23 24 25 25 22 19 18 14 8 3 360 358 359 358 358 1 356 345 342 338 331 326 322 321 321 316 310 306 300 295 293 293 293 292 292
36 36 37 39 41 44 46 46 47 45 41 34 20 17 22 29 29 18 10 10 11 12 14 15 18 21 23 25 23 20 19 19 18 19 20 15 8 3 359 358 358 358 360 3 0 354 349 344 339 338 336 332 328 326 327 328 322 314 310 309 306 301 296
29 31 33 35 36 39 41 42 45 43 37 28 14 13 22 26 15 6 5 6 5 6 7 10 15 20 23 28 27 20 17 16 14 14 15 12 6 2 0 359 358 357 0 5 4 358 354 350 347 347 347 345 345 348 347 344 338 328 322 319 316 314 309
23 23 26 29 30 33 36 37 43 41 32 19 9 10 17 16 6 3 3 2 1 3 4 8 13 15 17 20 20 16 10 7 8 10 11 9 5 360 358 358 358 357 358 3 5 360 356 358 356 356 357 354 354 356 346 337 337 334 327 321 315 317 320
20 19 19 22 23 25 30 33 42 39 24 13 9 6 5 6 4 2 0 358 360 2 4 7 9 8 8 4 2 3 1 356 354 354 357 1 3 0 357 357 359 359 359 0 360 357 359 359 349 346 350 345 337 334 330 329 333 333 331 328 321 319 324
18 17 17 18 18 20 24 27 39 33 15 10 13 2 355 3 1 357 356 357 1 4 4 4 3 2 359 354 352 352 351 351 351 348 345 343 348 352 352 356 359 357 357 357 354 350 350 347 335 331 334 332 326 323 322 324 327 328 331 335 328 320 316
18 17 16 16 17 20 21 23 36 27 10 7 13 5 1 7 359 352 353 355 1 3 1 0 359 358 357 354 352 349 345 344 345 347 346 341 339 341 343 349 351 348 346 345 342 336 329 324 323 322 322 325 323 318 315 315 317 320 322 320 312 303 300
18 18 16 16 19 23 21 21 30 23 9 5 8 9 16 11 357 351 356 1 1 358 357 357 354 353 355 354 354 353 349 348 348 346 341 336 333 333 333 332 328 325 325 324 324 322 316 314 315 315 317 320 317 314 315 316 316 315 312 307 299 292 292
14 17 18 16 17 21 20 19 25 20 7 4 8 11 16 11 359 355 1 3 0 355 354 354 351 352 353 352 354 355 352 355 358 350 340 333 330 329 329 325 322 321 319 318 320 317 311 309 308 307 311 313 313 318 328 331 324 314 309 304 297 293 295
10 12 16 15 14 18 19 16 24 21 7 5 10 9 9 12 8 4 357 351 350 349 347 346 347 349 349 348 350 351 355 0 356 344 337 334 329 325 322 322 325 330 331 326 322 317 312 308 303 298 297 301 313 313 306 310 313 309 306 302 298 297 297
9 9 12 14 13 19 22 17 25 31 15 8 5 1 3 7 5 3 357 348 346 346 345 345 343 343 343 343 342 346 356 358 349 341 339 337 334 332 330 329 325 325 335 338 328 316 311 309 305 296 290 301 323 316 302 302 305 305 310 311 307 303 301
10 9 11 14 16 22 25 18 22 35 19 8 1 355 358 360 359 358 354 350 352 352 349 347 342 339 338 337 338 344 351 350 345 343 341 341 344 345 347 347 331 316 323 330 318 301 293 290 288 285 284 293 305 308 309 311 311 312 316 315 310 304 302
8 12 15 18 20 19 16 11 12 15 6 1 357 352 352 356 358 355 350 348 350 349 346 342 333 330 331 332 337 343 344 342 341 337 337 345 348 344 344 341 329 322 321 315 304 295 289 286 283 282 284 287 290 294 302 309 312 316 315 305 297 295 297
0 7 12 14 13 9 3 359 359 358 354 354 353 347 346 350 353 354 350 347 343 338 337 331 322 321 319 319 327 333 333 334 333 329 336 350 349 339 337 331 323 324 326 318 310 305 300 294 289 286 286 287 286 286 291 298 305 311 310 298 291 291 295
359 0 3 3 359 357 356 352 349 348 346 346 346 343 340 343 349 352 347 340 336 332 327 322 318 317 314 312 317 324 325 322 320 322 333 344 343 335 332 325 318 319 319 313 310 309 305 300 296 294 292 289 286 284 284 289 296 301 302 296 289 286 284
355 353 353 352 349 348 350 348 345 343 339 337 339 340 337 337 343 345 337 330 330 329 325 323 321 318 316 314 314 318 317 311 312 318 322 327 332 328 322 318 315 314 313 309 308 307 304 300 298 296 294 291 289 286 285 287 290 293 294 290 286 282 275
344 343 341 340 340 340 342 343 341 339 336 334 335 336 336 334 335 335 330 326 327 327 325 325 324 319 317 316 312 310 309 308 310 311 309 314 324 322 317 315 313 312 312 311 309 306 302 301 300 298 296 294 291 289 288 289 289 289 289 286 282 279 275
337 335 333 332 331 333 337 338 336 335 335 336 336 336 334 332 330 329 328 326 326 326 326 325 324 321 319 315 307 304 305 307 305 302 305 314 320 318 317 317 315 314 314 312 309 307 303 301 300 299 298 296 295 293 290 287 284 282 282 280 277 275 276
335 333 333 332 329 329 332 333 331 331 332 334 336 333 328 326 326 327 328 325 323 324 326 327 324 319 313 307 303 303 302 296 290 295 305 314 316 316 318 318 315 314 314 313 310 308 306 303 302 301 299 297 297 295 288 281 278 276 273 273 274 275 277
335 333 333 332 329 328 328 327 325 325 327 330 332 328 324 323 325 327 328 327 325 323 325 325 322 316 308 304 303 300 291 283 287 298 307 311 313 316 318 317 314 313 313 312 311 309 308 306 304 302 298 295 294 289 281 277 279 278 276 278 280 280 278
331 331 330 328 327 327 324 322 320 320 322 325 326 325 325 328 330 331 330 327 323 320 319 319 319 316 312 308 305 298 293 295 300 305 307 309 312 316 316 315 314 314 315 313 312 310 309 308 307 305 301 297 292 283 279 283 288 289 289 292 294 293 287
327 327 325 323 324 324 321 319 318 316 318 322 323 324 329 331 331 330 329 327 326 324 320 315 313 313 310 305 299 297 299 302 305 307 308 311 312 314 314 313 314 318 320 320 319 318 316 315 315 313 307 300 290 283 285 293 298 299 300 302 305 304 298
321 320 320 320 321 321 319 317 316 316 318 320 321 322 325 325 325 325 325 328 330 328 322 315 311 309 308 306 304 304 304 305 307 309 310 311 312 312 312 314 318 323 327 333 336 335 332 330 329 323 316 309 296 289 294 301 303 304 306 309 312 309 304
313 314 316 317 317 318 319 318 317 316 316 314 313 314 314 315 317 317 319 325 327 319 312 314 316 316 317 318 317 316 316 316 315 313 312 311 312 312 315 321 327 331 333 337 342 343 342 343 341 334 329 326 316 305 305 308 309 309 310 313 314 309 305
307 309 312 311 310 310 312 312 311 310 309 308 308 308 307 309 310 310 312 319 317 307 308 315 318 319 321 322 321 321 321 320 317 314 313 314 314 315 320 323 328 333 335 335 336 338 339 341 342 339 336 335 328 319 314 312 311 311 312 313 312 307 303
307 308 310 310 309 307 306 305 306 307 307 308 308 307 307 308 308 307 311 315 311 305 308 313 315 315 315 315 314 315 317 318 318 316 316 317 315 315 320 323 325 329 332 333 333 333 332 332 334 334 333 332 329 324 320 315 312 311 310 309 308 305 303
309 309 309 309 310 309 307 308 309 308 307 307 307 307 307 306 305 305 304 301 301 304 307 309 309 310 309 307 305 307 311 316 320 321 321 320 317 313 315 320 323 324 327 330 332 330 328 328 328 327 326 324 323 321 318 314 311 309 307 305 304 302 301
312 313 312 310 309 307 306 307 308 306 305 306 304 305 306 305 301 297 293 294 299 303 305 305 305 305 303 300 299 302 306 310 313 315 315 314 313 312 312 314 316 317 318 321 324 324 323 322 322 322 321 318 315 314 313 310 307 304 302 300 298 298 300
317 319 318 314 311 308 306 305 305 304 305 305 304 305 306 299 289 283 284 291 298 303 303 304 304 302 299 297 295 297 301 304 305 305 306 306 306 306 307 308 310 312 313 315 317 317 317 317 317 317 316 313 311 309 307 303 299 298 297 294 292 294 298
319 321 321 316 312 311 308 305 303 303 302 303 304 305 300 291 287 287 289 291 295 300 301 300 298 296 296 296 294 294 297 300 300 300 302 303 304 303 304 305 306 308 310 312 312 311 311 313 313 311 309 308 307 306 304 299 294 292 292 291 290 292 296
316 320 319 314 312 312 309 305 304 303 302 301 301 300 294 291 294 298 298 296 297 298 297 293 290 289 290 291 291 292 293 294 296 296 297 299 300 301 302 302 303 305 307 308 307 306 306 307 307 305 305 304 302 303 302 298 292 289 289 289 290 291 294